SCP
1 1 1 1 1 1 1 1 1 1 1 1 1 0 0 0 0 0 0 0 0 0 0 0 0 0 0 0 0 0 0 0 0 0 0 0 0 0 0 0 0 0 0
1 1 1 1 1 1 1 1 1 1 1 1 1 1 0 0 0 0 0 0 0 0 0 0 0 0 0 0 0 0 0 0 0 0 0 0 0 0 0 0 0 0 0
1 1 1 1 1 1 1 1 1 1 1 1 1 1 0 0 0 0 0 0 0 0 0 0 0 0 0 0 0 0 0 0 0 0 0 0 0 0 0 0 0 0 0
1 1 1 1 1 1 1 1 1 1 1 1 1 1 1 0 0 0 0 0 0 0 0 0 0 0 0 0 0 0 0 0 0 0 0 0 0 0 0 0 0 0 0
1 1 1 1 1 1 1 1 1 1 1 1 1 1 1 0 0 0 0 0 0 0 0 0 0 0 0 0 0 0 0 0 0 0 0 0 0 0 0 0 0 0 0
1 1 1 1 1 1 1 1 1 1 1 1 1 1 1 0 0 0 0 0 0 0 0 0 0 0 0 0 0 0 0 0 0 0 0 0 0 0 0 0 0 0 0
1 1 0 0 1 1 1 1 1 1 1 1 1 1 1 1 0 0 0 0 0 0 0 0 0 0 0 0 0 0 0 0 0 0 0 0 0 0 0 0 0 0 0
1 1 0 1 1 1 1 1 1 1 1 1 1 1 1 1 1 1 0 0 0 0 0 0 0 0 0 0 0 0 0 0 0 0 0 0 0 0 0 0 0 0 0
1 0 0 1 1 1 1 1 1 1 1 1 1 1 1 1 1 1 1 1 0 0 0 0 0 0 0 0 0 0 0 0 0 0 0 0 0 0 0 0 0 0 0
0 0 1 1 1 1 1 1 1 1 1 1 1 1 1 1 1 1 1 1 0 0 0 0 0 0 0 0 0 0 0 0 0 0 0 0 0 0 0 0 0 0 0
0 0 1 1 1 1 1 1 1 1 1 1 1 1 1 1 1 1 1 1 0 0 0 0 0 0 0 0 0 0 0 0 0 0 0 0 0 0 0 0 0 0 0
0 0 0 1 1 0 1 1 1 1 1 1 1 1 1 1 1 1 1 1 0 0 0 0 0 0 0 0 0 0 0 0 0 0 0 0 0 0 0 0 0 0 0
0 0 0 0 0 0 0 1 1 1 1 1 1 0 0 1 1 1 1 0 0 0 0 0 0 0 0 0 0 0 0 0 0 0 0 0 0 0 0 0 0 0 0
0 0 0 0 0 0 0 0 0 0 0 0 0 0 0 0 0 0 0 0 0 0 0 0 0 0 0 0 0 0 0 0 0 0 0 0 0 0 0 0 0 0 0
0 0 0 0 0 0 0 0 0 0 0 0 0 0 0 0 0 0 0 0 0 0 0 0 0 0 0 0 0 0 0 0 0 0 0 0 0 0 0 0 0 0 0
0 0 0 0 0 0 0 0 0 0 0 0 0 0 0 0 0 0 0 0 0 0 0 0 0 0 0 0 0 0 0 0 0 0 0 0 0 0 0 0 0 0 0
0 0 0 0 0 0 0 0 0 0 0 0 0 0 0 0 0 0 0 0 0 0 0 0 0 0 0 0 0 0 0 0 0 0 0 0 0 0 0 0 0 0 0
0 0 0 0 0 0 0 0 0 0 0 0 0 0 0 0 0 0 0 0 0 0 0 0 0 0 0 0 0 0 0 0 0 0 0 0 0 0 0 0 0 0 0
0 0 0 0 0 0 0 0 0 0 0 0 0 0 0 0 0 0 0 0 0 0 0 0 0 0 0 0 0 0 0 0 0 0 0 0 0 0 0 0 0 0 0
0 0 0 0 0 0 0 0 0 0 0 0 0 0 0 0 0 0 0 0 0 0 0 0 0 -0 -0 -0 -0 0 0 0 0 0 0 0 0 0 0 0 0 0 0
0 0 0 0 0 0 0 0 0 0 0 0 0 0 0 0 0 0 0 0 0 0 0 0 0 0 -0 -0 -0 0 0 0 0 0 0 0 0 0 0 0 0 0 0
0 0 0 0 0 0 0 0 0 0 0 0 0 0 0 0 0 0 0 0 0 0 0 0 0 0 0 0 0 -0 0 0 0 0 0 0 0 0 0 0 0 0 0
0 0 0 0 0 0 0 0 0 0 0 0 0 0 0 0 0 0 0 0 0 0 0 0 0 0 0 0 0 0 0 0 0 0 0 0 0 0 0 0 0 0 0
0 0 0 0 0 0 0 0 0 0 0 0 0 0 0 0 0 0 0 0 0 0 0 0 0 0 0 0 0 0 0 0 0 0 0 0 0 0 0 0 0 0 0
0 0 0 0 0 0 0 0 0 0 0 0 0 0 0 0 0 0 0 0 0 0 0 0 0 0 0 0 0 0 0 0 0 0 0 0 0 0 0 0 0 0 0
0 0 0 0 0 0 0 0 0 0 0 0 0 0 0 0 0 0 0 0 0 0 0 0 0 0 0 0 0 0 0 0 0 0 0 0 0 0 0 0 0 0 0
Wind_Speed
7 8 7 7 7 6 6 6 5 4 4 3 3 2 2 1 1 1 2 3 2 2 3 2 1 2 2 2 2 2 2 1 1 2 2 3 2 1 0 1 1 2 3
5 7 7 6 6 6 6 6 6 5 4 3 3 2 2 2 2 1 1 2 2 2 3 2 2 2 2 2 2 2 2 1 1 2 2 2 3 3 2 0 1 2 2
10 9 8 6 6 5 6 6 5 5 4 4 3 2 2 2 1 1 1 1 2 2 2 2 2 2 2 2 1 2 3 1 0 1 3 2 2 2 3 1 0 1 1
9 8 8 6 5 5 5 5 5 4 4 4 4 4 3 2 2 2 1 1 1 2 2 2 2 2 2 2 1 1 2 2 1 0 0 2 3 2 2 3 2 2 2
9 8 7 7 5 5 5 4 4 3 3 3 4 4 3 2 1 1 2 2 1 1 1 2 1 2 1 1 1 1 1 2 2 1 0 0 0 1 2 2 3 2 2
8 7 6 5 5 4 5 4 5 3 3 4 3 4 3 2 2 2 1 1 1 1 1 1 1 2 1 1 1 1 2 2 2 1 1 2 1 2 2 2 2 2 2
7 6 6 5 5 5 5 4 5 3 2 3 3 3 3 3 3 2 2 2 1 1 2 1 1 1 2 2 1 1 1 1 1 1 1 1 2 2 2 2 1 2 2
6 6 6 6 5 5 5 4 4 3 2 2 2 2 2 2 2 2 2 2 2 2 2 2 2 2 2 2 2 1 2 1 1 1 1 1 1 1 2 3 2 0 2
6 6 5 5 5 5 4 4 4 2 2 2 2 1 1 2 1 1 1 1 1 1 1 2 2 2 2 2 2 1 2 1 1 1 1 1 1 1 1 2 3 3 1
6 5 5 5 5 4 3 3 3 3 2 2 2 2 1 1 1 2 1 1 1 1 1 2 2 2 2 2 2 1 2 1 1 1 1 1 1 1 1 1 2 2 3
6 5 4 4 4 4 3 3 2 2 1 1 1 1 1 1 1 1 2 2 1 1 2 2 2 2 2 2 2 2 2 2 2 1 1 2 2 1 1 1 1 1 2
5 5 5 4 4 4 3 2 2 2 2 1 1 1 1 1 1 1 1 1 1 2 2 2 2 2 2 2 3 3 3 2 2 2 1 2 2 1 1 1 1 1 2
6 5 4 4 4 3 2 2 2 1 1 1 2 1 1 1 1 1 1 1 1 1 1 1 2 2 2 2 2 3 3 3 2 2 2 2 1 2 1 1 1 1 1
5 4 4 3 3 2 2 1 1 1 2 2 2 1 1 1 1 1 1 1 1 1 1 2 2 2 2 2 2 2 2 2 2 2 3 3 2 3 2 1 1 1 1
5 4 4 3 2 2 1 1 0 1 2 2 1 1 1 1 1 0 0 1 1 1 2 2 2 2 2 2 2 2 2 2 2 2 2 3 3 4 3 2 2 2 1
4 4 3 3 2 2 2 1 1 1 1 2 1 1 1 0 0 1 1 1 1 1 1 2 2 2 2 1 2 2 1 2 2 3 3 3 3 3 3 4 4 4 3
5 4 3 2 2 1 1 2 2 1 1 1 1 1 1 1 1 1 1 1 2 1 2 2 2 2 2 3 3 3 2 2 2 3 3 3 3 3 2 3 3 4 5
4 3 2 1 1 1 0 1 1 1 1 0 0 1 1 1 1 1 1 2 2 2 2 3 2 1 3 4 4 4 2 2 3 3 3 3 3 3 3 2 2 3 3
4 3 2 2 1 1 1 2 2 1 1 0 1 1 1 1 2 2 3 3 2 2 3 2 2 2 4 4 4 3 2 2 3 3 3 2 3 4 4 2 2 3 4
3 3 2 2 1 0 2 3 1 1 1 2 2 2 1 1 2 3 3 2 2 3 2 2 3 3 4 4 4 3 2 2 3 3 3 3 3 3 3 3 3 3 4
3 3 3 2 1 1 2 2 0 1 2 2 2 2 2 2 2 2 2 2 2 2 2 2 3 3 4 5 5 4 2 3 2 2 3 3 4 4 4 3 3 5 4
2 3 2 1 1 1 2 1 2 3 2 1 2 2 3 2 2 2 2 2 2 2 2 2 3 3 3 4 4 5 5 4 3 3 3 3 5 5 4 3 4 5 3
2 2 3 2 0 0 1 1 3 2 2 2 2 3 3 3 2 2 2 2 1 1 2 2 3 3 3 3 5 5 5 5 3 3 4 5 5 4 3 4 4 3 1
2 2 2 2 1 1 1 2 2 1 1 2 3 2 2 3 2 1 1 1 1 2 2 3 3 3 2 3 2 2 2 3 2 2 3 3 4 3 3 3 3 2 2
2 2 3 3 3 2 2 2 1 1 1 2 3 3 2 2 2 2 2 2 3 3 4 4 3 3 4 5 5 3 2 2 2 1 0 1 1 1 2 2 2 2 1
2 2 2 2 2 2 2 2 2 1 1 2 3 3 2 2 2 2 3 4 4 5 5 6 5 4 6 6 5 5 5 5 3 2 1 2 2 3 3 3 2 2 2
Wind_Direction
158 147 145 144 136 136 137 145 143 145 138 131 138 137 147 139 114 124 132 127 122 123 125 131 122 111 111 117 116 111 85 65 77 68 23 357 349 346 206 188 165 184 192
132 137 135 135 142 146 148 150 153 155 153 152 156 156 147 145 141 144 134 135 124 126 137 135 145 128 106 100 99 102 98 62 77 111 86 9 348 337 334 301 180 197 194
150 149 147 149 147 152 156 155 157 153 151 143 125 106 83 70 79 103 152 154 143 137 127 140 138 119 117 133 141 131 131 141 46 124 137 144 226 302 320 312 262 215 202
143 145 145 144 157 170 153 141 141 143 147 140 137 143 154 169 189 184 171 161 160 151 149 148 146 134 132 140 185 155 143 135 142 337 149 169 161 163 304 319 308 265 230
142 138 142 152 157 152 137 134 123 117 121 135 146 146 153 179 176 147 145 156 187 184 171 159 151 138 146 156 176 154 147 144 148 162 179 100 98 145 168 273 306 315 287
133 129 131 131 120 114 112 116 111 102 104 106 110 133 147 154 133 134 155 174 203 220 212 159 166 162 159 162 189 198 169 163 158 166 153 158 169 190 178 212 254 275 286
127 123 118 116 121 121 121 117 123 117 116 122 133 149 156 151 148 158 172 179 199 226 225 190 192 191 190 188 183 195 201 182 167 186 190 185 192 179 166 168 223 260 290
131 134 137 136 135 135 130 127 129 131 137 142 152 146 142 145 160 168 168 185 205 221 213 198 198 200 200 208 189 197 219 197 190 213 196 199 224 184 172 173 169 236 308
138 137 134 135 133 135 136 143 149 152 164 164 154 144 140 135 147 154 158 187 217 217 198 203 202 204 202 205 183 198 222 210 204 221 212 222 245 207 204 183 168 165 207
134 133 131 130 130 138 135 133 139 152 160 158 171 169 176 159 164 155 173 197 219 220 191 218 220 211 199 194 182 205 218 197 218 208 195 253 255 251 227 198 180 167 172
139 142 134 128 126 123 127 129 132 125 136 167 181 173 179 173 168 182 198 200 207 205 199 213 215 213 215 207 199 217 210 205 235 244 207 258 259 252 257 219 186 186 168
120 121 116 111 111 115 124 137 151 154 180 174 149 161 169 163 167 213 221 201 201 211 209 206 209 222 222 208 201 221 216 202 214 236 226 257 262 262 256 241 222 215 195
112 108 111 115 117 118 120 129 151 172 172 128 114 106 110 180 219 244 247 220 201 216 228 209 220 233 231 223 218 214 210 202 212 219 224 239 230 255 256 250 243 231 214
114 124 119 111 108 106 106 106 130 144 124 114 117 140 186 192 206 228 249 242 213 207 228 228 230 232 221 217 219 204 190 204 217 220 225 226 215 228 234 235 233 211 200
111 112 113 111 112 108 96 112 136 136 126 110 118 188 205 193 163 155 249 269 261 248 236 234 237 232 214 216 209 213 207 208 228 242 243 244 238 225 218 219 211 195 199
122 123 121 117 138 160 152 154 148 157 126 126 186 243 244 243 240 220 214 275 281 282 272 258 236 235 249 247 219 206 228 228 229 240 251 259 248 244 242 240 225 205 200
130 130 135 144 152 182 163 158 159 143 117 141 248 257 223 233 254 262 266 262 262 269 276 272 253 242 255 253 238 217 217 240 244 243 246 256 255 246 245 249 244 244 239
128 124 120 106 122 119 106 159 120 98 93 89 292 274 258 258 259 266 254 256 255 256 259 264 262 259 268 257 246 240 234 250 255 245 238 235 250 246 221 226 246 255 256
139 140 140 138 127 119 96 80 59 54 48 347 288 259 231 264 277 274 265 253 250 257 257 256 241 249 272 266 264 247 242 256 266 256 242 227 234 252 233 210 236 268 279
126 121 108 85 97 116 89 82 54 22 330 292 276 272 259 247 258 263 262 260 244 240 249 247 237 239 259 274 268 243 228 257 271 279 268 243 236 249 234 210 213 243 262
127 118 107 98 132 143 113 111 83 280 274 292 299 296 283 264 261 265 271 271 256 257 264 259 257 252 254 269 265 243 219 234 249 261 269 262 248 240 240 229 223 239 246
124 122 114 102 75 106 117 142 257 263 279 305 311 305 296 285 286 271 276 272 253 253 265 273 284 280 271 265 268 254 237 228 222 240 253 259 256 248 248 249 250 255 246
154 150 141 136 131 128 142 195 266 277 291 316 305 298 294 290 291 273 270 282 278 256 258 259 268 281 288 282 272 262 251 240 228 247 256 258 255 260 264 260 263 264 220
175 166 147 153 232 258 229 224 256 275 300 298 294 289 289 291 295 284 261 252 258 258 260 257 260 267 274 279 282 276 259 254 251 267 272 261 261 265 259 269 274 247 223
194 176 175 191 223 246 263 270 265 270 296 290 282 282 275 268 269 271 258 247 243 230 233 243 238 239 256 259 248 229 234 235 235 212 345 307 289 279 271 272 264 253 234
195 184 189 205 231 244 259 270 266 240 274 288 282 273 274 272 268 272 295 286 269 274 260 249 240 239 243 252 246 240 244 250 235 171 212 240 242 243 249 253 266 260 243